Total_Precipitation_Accumulation
0.01 0.02 0.06 0.04 0.02 0.02 0.03 0.05 0.06 0.07 0.07 0.07 0.06 0.04 0.03 0.02 0.02 0.01 0.01 0.01 0.02 0.03 0.04 0.05 0.06 0.07 0.08 0.09 0.09 0.08 0.07 0.06 0.08 0.10 0.11 0.12 0.18 0.28 0.39 0.41 0.47 0.41 0.28
0.00 0.01 0.06 0.03 0.02 0.02 0.03 0.04 0.06 0.08 0.08 0.08 0.07 0.04 0.03 0.02 0.02 0.02 0.01 0.01 0.02 0.03 0.03 0.04 0.05 0.05 0.05 0.04 0.04 0.04 0.04 0.06 0.10 0.13 0.15 0.16 0.24 0.36 0.38 0.32 0.45 0.34 0.22
0.00 0.01 0.03 0.03 0.02 0.02 0.02 0.04 0.05 0.06 0.07 0.07 0.06 0.05 0.04 0.03 0.02 0.01 0.01 0.02 0.02 0.03 0.03 0.03 0.03 0.03 0.03 0.02 0.02 0.02 0.03 0.08 0.17 0.25 0.36 0.33 0.20 0.36 0.43 0.36 0.31 0.18 0.17
0.01 0.01 0.02 0.03 0.02 0.02 0.02 0.03 0.04 0.05 0.06 0.07 0.06 0.05 0.04 0.03 0.03 0.04 0.03 0.02 0.03 0.04 0.05 0.03 0.03 0.02 0.03 0.02 0.02 0.02 0.04 0.08 0.16 0.29 0.60 0.44 0.16 0.20 0.27 0.24 0.21 0.16 0.16
0.02 0.02 0.03 0.04 0.02 0.02 0.02 0.03 0.04 0.05 0.06 0.06 0.06 0.05 0.05 0.04 0.04 0.05 0.04 0.03 0.03 0.05 0.05 0.04 0.03 0.03 0.03 0.03 0.04 0.04 0.06 0.10 0.18 0.32 0.40 0.40 0.35 0.21 0.17 0.16 0.17 0.16 0.15
0.04 0.05 0.05 0.05 0.03 0.03 0.02 0.03 0.04 0.05 0.05 0.07 0.06 0.06 0.06 0.06 0.05 0.05 0.04 0.03 0.04 0.06 0.06 0.04 0.03 0.03 0.03 0.03 0.04 0.04 0.07 0.13 0.21 0.28 0.24 0.28 0.35 0.26 0.19 0.23 0.27 0.26 0.17
0.05 0.05 0.05 0.06 0.04 0.03 0.03 0.03 0.03 0.04 0.05 0.06 0.06 0.05 0.05 0.05 0.06 0.06 0.05 0.05 0.06 0.08 0.09 0.05 0.04 0.03 0.02 0.02 0.03 0.03 0.07 0.14 0.23 0.26 0.22 0.29 0.32 0.22 0.27 0.41 0.52 0.46 0.34
0.06 0.05 0.05 0.06 0.06 0.04 0.04 0.04 0.04 0.05 0.06 0.06 0.06 0.06 0.05 0.05 0.05 0.06 0.06 0.07 0.08 0.09 0.09 0.06 0.04 0.04 0.03 0.04 0.04 0.05 0.07 0.12 0.17 0.19 0.18 0.27 0.21 0.20 0.36 0.57 0.68 0.67 0.61
0.11 0.14 0.09 0.07 0.06 0.06 0.06 0.06 0.05 0.06 0.06 0.07 0.07 0.06 0.06 0.06 0.07 0.09 0.11 0.12 0.12 0.11 0.12 0.08 0.05 0.04 0.05 0.05 0.05 0.06 0.08 0.13 0.19 0.24 0.22 0.26 0.21 0.27 0.52 0.71 0.77 0.80 0.81
0.27 0.22 0.11 0.09 0.09 0.08 0.07 0.06 0.07 0.08 0.08 0.08 0.08 0.08 0.09 0.09 0.11 0.15 0.16 0.18 0.21 0.21 0.20 0.16 0.12 0.09 0.09 0.08 0.06 0.06 0.08 0.12 0.14 0.20 0.29 0.30 0.29 0.42 0.61 0.73 0.89 0.96 0.92
0.38 0.27 0.10 0.08 0.09 0.10 0.10 0.10 0.11 0.13 0.13 0.13 0.15 0.16 0.18 0.18 0.24 0.36 0.38 0.43 0.42 0.41 0.39 0.35 0.31 0.27 0.24 0.15 0.15 0.21 0.17 0.10 0.12 0.23 0.28 0.29 0.37 0.58 0.77 0.89 0.97 1.01 0.98
0.22 0.19 0.16 0.13 0.12 0.13 0.13 0.20 0.23 0.25 0.30 0.25 0.32 0.39 0.40 0.47 0.45 0.41 0.61 0.79 0.82 0.85 0.80 0.78 0.76 0.59 0.41 0.33 0.73 0.94 0.34 0.22 0.25 0.25 0.32 0.45 0.64 0.88 1.12 1.10 1.00 0.96 0.91
0.35 0.29 0.25 0.21 0.22 0.21 0.24 0.26 0.33 0.39 0.54 0.44 0.44 0.55 0.72 0.75 0.60 0.55 0.65 0.88 1.06 1.10 0.99 1.22 1.30 0.92 0.82 0.96 1.23 1.20 0.65 0.54 0.39 0.33 0.40 0.66 0.94 1.24 1.48 1.41 1.17 1.01 0.92
0.56 0.46 0.40 0.34 0.32 0.34 0.39 0.39 0.46 0.49 0.65 0.63 0.74 0.82 0.96 1.07 0.95 0.92 0.98 1.00 1.10 1.22 1.43 1.55 1.62 1.46 1.39 1.31 1.41 1.22 1.01 0.95 0.67 0.76 0.92 1.15 1.22 1.34 1.69 1.73 1.46 1.26 1.09
0.77 0.63 0.58 0.61 0.64 0.67 0.74 0.78 0.78 0.81 0.89 0.93 1.05 1.06 1.09 1.23 1.20 1.25 1.23 1.29 1.24 1.34 1.56 1.77 1.76 1.81 1.84 1.71 1.47 1.34 1.33 1.27 1.16 1.28 1.31 1.56 1.46 1.40 1.71 1.78 1.59 1.42 1.28
1.17 1.10 1.06 1.09 1.25 1.22 1.21 1.14 1.16 1.14 1.16 1.14 1.24 1.24 1.31 1.46 1.54 1.46 1.30 1.36 1.34 1.44 1.54 1.72 1.80 2.06 2.00 1.93 1.53 1.38 1.42 1.47 1.40 1.50 1.54 1.78 1.65 1.43 1.55 1.63 1.64 1.57 1.44
1.50 1.61 1.67 1.80 1.88 1.84 1.77 1.60 1.49 1.48 1.43 1.43 1.47 1.49 1.62 1.68 1.75 1.68 1.50 1.41 1.49 1.58 1.64 1.69 1.79 2.04 1.98 1.86 1.56 1.48 1.46 1.38 1.23 1.26 1.38 1.51 1.47 1.38 1.41 1.46 1.54 1.54 1.51
1.55 1.80 2.09 2.35 2.37 2.27 2.14 1.94 1.75 1.66 1.60 1.58 1.61 1.62 1.66 1.74 1.79 1.75 1.54 1.39 1.62 1.64 1.67 1.78 1.85 1.96 2.02 2.03 1.75 1.54 1.46 1.36 1.16 1.17 1.18 1.20 1.26 1.05 1.19 1.39 1.49 1.52 1.67
1.78 2.17 2.66 2.79 2.78 2.66 2.36 2.12 1.97 1.90 1.77 1.67 1.67 1.60 1.63 1.72 1.71 1.75 1.48 1.37 1.62 1.76 1.75 1.65 1.86 2.06 2.03 2.04 1.79 1.55 1.34 1.18 1.01 0.99 1.03 0.97 1.00 0.98 0.98 1.07 1.20 1.30 1.63
2.19 2.60 2.88 3.01 3.12 3.04 2.92 2.65 2.32 2.09 1.87 1.76 1.66 1.53 1.45 1.41 1.52 1.72 1.45 1.44 1.69 1.74 1.69 1.78 1.91 2.09 1.97 2.02 1.85 1.40 1.15 0.90 0.86 0.77 0.71 0.74 0.68 0.64 0.67 0.85 1.12 1.08 1.40
2.22 2.48 2.88 3.11 3.10 3.02 2.97 2.69 2.29 1.92 1.73 1.57 1.45 1.36 1.36 1.41 1.56 1.83 1.60 1.60 1.66 1.59 1.59 1.78 1.92 1.84 1.72 2.14 2.07 1.36 0.87 0.70 0.61 0.46 0.48 0.49 0.44 0.46 0.59 0.81 0.99 1.06 1.04
1.76 2.12 2.40 2.47 2.21 2.03 1.99 1.96 1.83 1.75 1.58 1.43 1.39 1.44 1.42 1.47 1.54 1.65 1.67 1.60 1.61 1.58 1.44 1.53 1.78 1.66 1.38 1.84 2.00 1.77 1.14 0.71 0.50 0.35 0.37 0.36 0.40 0.52 0.59 0.63 0.82 1.00 1.00
1.38 1.56 1.70 1.60 1.43 1.38 1.45 1.54 1.59 1.67 1.57 1.57 1.63 1.69 1.55 1.56 1.57 1.66 1.57 1.43 1.40 1.42 1.29 1.30 1.50 1.57 1.36 1.43 1.79 2.04 1.54 0.92 0.67 0.45 0.46 0.49 0.60 0.72 0.72 0.75 0.83 0.95 1.02
1.06 1.17 1.34 1.30 1.23 1.30 1.52 1.62 1.65 1.77 1.88 2.03 2.22 2.16 2.01 1.84 1.72 1.63 1.47 1.31 1.16 1.14 1.10 1.07 1.24 1.36 1.37 1.17 1.32 1.46 1.41 1.31 1.17 0.75 0.55 0.59 0.74 0.81 0.84 0.89 0.91 0.96 1.04
0.89 0.95 1.15 1.28 1.39 1.59 1.76 1.85 1.94 2.00 2.07 2.07 2.09 2.02 1.92 1.82 1.68 1.52 1.40 1.28 1.17 1.08 1.01 0.99 1.04 1.08 1.12 1.04 1.09 1.16 1.23 1.24 1.18 1.07 0.79 0.77 0.78 0.65 0.67 0.72 0.86 1.10 1.17
1.12 1.06 1.11 1.29 1.49 1.64 1.72 1.79 1.81 1.77 1.73 1.63 1.53 1.42 1.34 1.30 1.25 1.20 1.12 1.03 0.99 0.98 0.99 0.97 0.95 0.96 0.98 1.00 1.01 1.04 1.15 1.23 1.27 1.28 1.10 0.96 0.87 0.73 0.70 0.72 0.80 0.96 1.06